{"data":{"norad_id":62621,"epoch":"2026-05-24T17:47:37.910400Z","epoch_age_seconds":98058,"freshness":"FRESH","line1":"1 62621U 25009N   26144.74141100  .00055967  00000+0  13429-2 0  9990","line2":"2 62621  97.3966 227.6419 0002734  68.5728 291.5810 15.41186598 75389","mean_motion":15.41186598,"eccentricity":0.0002734,"inclination_deg":97.3966,"raan_deg":227.6419,"arg_perigee_deg":68.5728,"mean_anomaly_deg":291.581,"bstar":0.0013429,"rev_number":7538,"period_min":93.43450052503,"perigee_km":440.74130555711,"apogee_km":444.4708878824,"semimajor_km":6820.7430967198,"source":"CELESTRAK","updated_at":"2026-05-25T13:38:13.335857Z"}}